Location: UBC Liquid-Mirror Observatory
(49.2876°N, 122.5728°W)
Time: 17:04:35
(UTC-08:00)

Amateur Radio Satellites - All Passes

Search period start: 26 January 2015 16:34
Search period end: 27 January 2015 16:34
Location: UBC Liquid-Mirror Observatory, 49.2876°N, 122.5728°W

Satellite Date Start Highest point End Downlink Frequencies (MHz)
Time Altitude Azimuth
STARS 26 Jan 16:36:19 16:39:49 22° 298° (WNW) 16:43:12 437.465
KKS-1 26 Jan 16:36:23 16:39:19 17° 301° (WNW) 16:42:07 437.445
DANDE 26 Jan 16:36:34 16:43:26 40° 272° (W) 16:48:44 436.750
AUBIESAT-1 26 Jan 16:49:53 16:52:46 27° 298° (WNW) 16:55:37 437.475
JAS-2 26 Jan 17:20:52 17:25:11 22° 269° (W) 17:29:13 435.910
CUSAT 1 26 Jan 17:23:18 17:27:09 16° 285° (WNW) 17:30:17 437.405
SO-50 26 Jan 17:24:54 17:28:33 21° 25° (NNE) 17:32:17 436.795
AO-7 26 Jan 17:25:32 17:31:05 18° 276° (W) 17:36:13 29.400- 29.500
PRISM 26 Jan 17:41:03 17:43:51 18° 91° (E) 17:46:45 437.425
Cubesat XI-IV 26 Jan 17:43:23 17:48:42 72° 257° (WSW) 17:54:04 437.490
YUBILEINY 26 Jan 17:45:50 17:48:00 11° 69° (ENE) 17:50:48 435.215
O/OREOS (USA 219) 26 Jan 17:48:17 17:52:40 51° 302° (WNW) 17:57:08 437.305
MOZHAYETS 4 26 Jan 17:53:06 17:57:29 45° 291° (WNW) 18:01:49
BRITE-PL 26 Jan 17:57:45 17:59:25 12° 51° (NE) 18:01:20 437.365/2234.400
CUBESAT XI-V 26 Jan 18:00:24 18:04:04 23° 91° (E) 18:07:50 437.345
CUTE-I 26 Jan 18:04:31 18:09:41 49° 261° (W) 18:14:53 437.470
GOMX 1 26 Jan 18:08:49 18:09:43 11° 50° (NE) 18:10:52 467.674
DOVE 4 26 Jan 18:33:18 18:35:20 13° 53° (NE) 18:37:36 437.250
STRAND 1 26 Jan 18:34:26 18:39:04 34° 95° (E) 18:43:45 437.568
HO-68 26 Jan 18:35:36 18:41:40 32° 56° (NE) 18:47:52 435.675
SEEDS 26 Jan 18:56:08 18:58:48 17° 61° (ENE) 19:01:36 437.485
SO-50 26 Jan 19:05:06 19:10:00 67° 47° (NE) 19:14:56 436.795
PRISM 26 Jan 19:15:41 19:19:44 51° 289° (WNW) 19:23:45 437.425
COMPASS 1 26 Jan 19:25:50 19:29:20 26° 66° (ENE) 19:32:54 437.405
Cubesat XI-IV 26 Jan 19:28:18 19:29:56 11° 278° (W) 19:31:15 437.490
CANX-2 26 Jan 19:30:59 19:35:02 42° 70° (ENE) 19:39:07 2200.000
BRITE-PL 26 Jan 19:31:52 19:36:49 57° 70° (ENE) 19:42:11 437.365/2234.400
O/OREOS (USA 219) 26 Jan 19:31:52 19:33:17 11° 325° (NW) 19:34:33 437.305
YUBILEINY 26 Jan 19:34:37 19:42:56 54° 90° (E) 19:51:22 435.215
CUBESAT XI-V 26 Jan 19:37:18 19:41:49 49° 290° (WNW) 19:46:20 437.345
GOMX 1 26 Jan 19:41:46 19:46:41 52° 70° (ENE) 19:51:56 467.674
Oscar 11 26 Jan 19:47:51 19:51:08 22° 63° (ENE) 19:54:31 145.826/435.025
AAUSAT CUBESAT 2 26 Jan 19:53:47 19:57:45 42° 69° (ENE) 20:01:45 437.432
CUTE 1.7 + AOD 2 26 Jan 19:55:20 19:59:36 67° 74° (ENE) 20:03:52 437.475
DELFI C3 26 Jan 20:05:42 20:09:00 24° 65° (ENE) 20:12:21 145.870
DOVE 4 26 Jan 20:07:10 20:12:09 64° 72° (ENE) 20:17:24 437.250
CUBEBUG 2 26 Jan 20:10:09 20:14:08 28° 64° (ENE) 20:18:13 437.445
STRAND 1 26 Jan 20:13:35 20:18:22 39° 294° (WNW) 20:23:06 437.568
CINEMA 3 26 Jan 20:15:11 20:19:53 47° 70° (ENE) 20:24:45 145.822/145.860
UKube-1 26 Jan 20:21:09 20:24:52 29° 65° (ENE) 20:28:38 .
HO-68 26 Jan 20:21:53 20:29:01 67° 256° (WSW) 20:36:10 435.675
SEEDS 26 Jan 20:29:59 20:34:14 65° 259° (WSW) 20:38:29 437.485
ZACube-1 26 Jan 20:30:01 20:33:59 30° 66° (ENE) 20:38:02 437.345
DX 1 26 Jan 20:38:09 20:42:15 42° 68° (ENE) 20:46:24 434.975-435.025
FUNcube-1 26 Jan 20:42:37 20:46:51 37° 68° (ENE) 20:51:08 145.935
SO-50 26 Jan 20:46:20 20:50:12 23° 245° (WSW) 20:53:59 436.795
ESTCUBE 1 26 Jan 20:46:30 20:47:58 12° 56° (NE) 20:49:38 437.505/2401.250
AISAT 26 Jan 20:50:05 20:53:39 24° 63° (ENE) 20:57:18 437.250
HUMSAT D 26 Jan 20:54:53 20:58:37 29° 66° (ENE) 21:02:25 437.325/437.525
UWE-3 26 Jan 20:55:22 20:59:58 58° 71° (ENE) 21:04:38 435.000/436.395/437.385
50 SAT 26 Jan 20:57:03 21:00:18 23° 64° (ENE) 21:03:37 437.505
COMPASS 1 26 Jan 21:01:00 21:04:57 37° 263° (W) 21:08:54 437.405
CANX-2 26 Jan 21:07:42 21:11:11 23° 268° (W) 21:14:36 2200.000
BRITE-PL 26 Jan 21:11:43 21:15:49 23° 272° (W) 21:20:02 437.365/2234.400
VELOX 1 26 Jan 21:19:07 21:23:17 42° 68° (ENE) 21:27:31 145.980
GOMX 1 26 Jan 21:20:54 21:25:10 26° 270° (W) 21:29:34 467.674
Oscar 11 26 Jan 21:22:50 21:27:04 49° 261° (W) 21:31:19 145.826/435.025
AAUSAT CUBESAT 2 26 Jan 21:30:15 21:33:37 22° 268° (W) 21:36:55 437.432
YUBILEINY 26 Jan 21:31:59 21:40:07 41° 294° (WNW) 21:48:14 435.215
CUTE 1.7 + AOD 2 26 Jan 21:33:31 21:36:03 15° 273° (W) 21:38:26 437.475
CUBEBUG 1 26 Jan 21:36:26 21:40:06 28° 65° (ENE) 21:43:52 437.445
DELFI C3 26 Jan 21:40:17 21:44:07 37° 263° (W) 21:47:56 145.870
UNISAT 6 26 Jan 21:43:26 21:45:54 15° 86° (E) 21:48:30 437.425
CUBEBUG 2 26 Jan 21:46:08 21:50:41 44° 263° (W) 21:55:16 437.445
DOVE 4 26 Jan 21:46:37 21:50:27 21° 273° (W) 21:54:17 437.250
CINEMA 3 26 Jan 21:53:09 21:57:21 27° 269° (W) 22:01:34 145.822/145.860
UKube-1 26 Jan 21:56:58 22:00:58 35° 263° (W) 22:04:58 .
QB50P1 26 Jan 21:58:28 22:00:09 12° 86° (E) 22:02:02 145.935-145.965
ZACube-1 26 Jan 22:05:58 22:10:17 38° 264° (W) 22:14:36 437.345
POLYITAN 1 26 Jan 22:10:34 22:13:18 17° 89° (E) 22:16:08 437.675
HO-68 26 Jan 22:14:45 22:18:20 14° 279° (W) 22:21:28 435.675
DX 1 26 Jan 22:15:09 22:18:42 24° 267° (W) 22:22:13 434.975-435.025
ANTELSAT 26 Jan 22:18:09 22:22:09 31° 94° (E) 22:26:06 437.575/2403.000
FUNcube-1 26 Jan 22:19:14 22:23:17 29° 266° (W) 22:27:20 145.935
ESTCUBE 1 26 Jan 22:19:41 22:24:09 75° 74° (ENE) 22:28:40 437.505/2401.250
TISAT 1 26 Jan 22:19:52 22:23:00 21° 63° (ENE) 22:26:15 437.305
BUGSAT 1 26 Jan 22:23:40 22:26:28 17° 89° (E) 22:29:24 437.445
AISAT 26 Jan 22:25:48 22:30:05 45° 261° (W) 22:34:24 437.250
TIGRISAT 26 Jan 22:27:26 22:31:38 37° 96° (E) 22:35:44 435.000
AIST 1 26 Jan 22:28:59 22:33:18 61° 77° (ENE) 22:37:37
HUMSAT D 26 Jan 22:30:20 22:34:22 35° 264° (W) 22:38:22 437.325/437.525
50 SAT 26 Jan 22:31:18 22:35:14 41° 262° (W) 22:39:12 437.505
POPSAT HIP 1 26 Jan 22:31:29 22:35:06 26° 93° (E) 22:38:43 437.405
UWE-3 26 Jan 22:33:26 22:36:56 20° 271° (W) 22:40:19 435.000/436.395/437.385
DUCHIFAT 1 26 Jan 22:35:42 22:39:25 28° 94° (E) 22:43:08 145.980
VELOX 1 26 Jan 22:56:24 23:00:05 24° 267° (W) 23:03:43 145.980
SWISSCUBE 26 Jan 23:07:06 23:09:41 15° 57° (ENE) 23:12:27 437.505
SPROUT 26 Jan 23:07:57 23:12:10 57° 72° (ENE) 23:16:27 437.525
NANOSAT C BR1 26 Jan 23:09:19 23:13:37 60° 101° (E) 23:17:51 145.865
CUBEBUG 1 26 Jan 23:12:21 23:16:24 37° 264° (W) 23:20:28 437.445
ISS 26 Jan 23:13:44 23:16:35 28° 145° (SE) 23:19:30 145.825
UNISAT 6 26 Jan 23:18:47 23:23:20 71° 287° (WNW) 23:27:43 437.425
QB50P2 26 Jan 23:22:03 23:26:25 82° 105° (ESE) 23:30:44 145.880/145.840
BEESAT 26 Jan 23:22:42 23:25:55 19° 59° (ENE) 23:29:15 436.000
ITUPSAT 1 26 Jan 23:24:49 23:28:05 19° 59° (ENE) 23:31:29 437.325
QB50P1 26 Jan 23:32:22 23:36:44 81° 286° (WNW) 23:41:02 145.935-145.965
YUBILEINY 26 Jan 23:37:52 23:40:16 11° 322° (NW) 23:42:11 435.215
GONETS M04 26 Jan 23:45:14 23:49:41 16° 73° (ENE) 23:54:38
POLYITAN 1 26 Jan 23:45:24 23:49:42 60° 288° (WNW) 23:53:57 437.675
TISAT 1 26 Jan 23:54:26 23:58:33 49° 261° (W) 00:02:44 437.305
ANTELSAT 26 Jan 23:54:54 23:59:00 34° 294° (WNW) 00:02:58 437.575/2403.000
BUGSAT 1 26 Jan 23:58:09 00:02:22 57° 289° (WNW) 00:06:34 437.445
ESTCUBE 1 26 Jan 23:59:10 00:01:40 14° 273° (W) 00:03:59 437.505/2401.250
TIGRISAT 27 Jan 00:04:23 00:08:19 29° 295° (WNW) 00:12:05 435.000
POPSAT HIP 1 27 Jan 00:07:06 00:11:08 38° 292° (WNW) 00:15:07 437.405
AIST 1 27 Jan 00:07:56 00:10:32 15° 275° (W) 00:13:00
DUCHIFAT 1 27 Jan 00:11:23 00:15:21 35° 292° (WNW) 00:19:15 145.980
KKS-1 27 Jan 00:26:30 00:29:11 16° 59° (ENE) 00:32:02 437.445
STARS 27 Jan 00:27:23 00:28:53 12° 55° (NE) 00:30:33 437.465
O/OREOS (USA 219) 27 Jan 00:36:17 00:39:06 16° 41° (NE) 00:42:03 437.305
SWISSCUBE 27 Jan 00:42:11 00:46:57 90° 76° (ENE) 00:51:46 437.505
Oscar 19 27 Jan 00:43:38 00:47:24 21° 89° (E) 00:51:16 437.125/150
SPROUT 27 Jan 00:45:44 00:48:42 17° 271° (W) 00:51:34 437.525
NANOSAT C BR1 27 Jan 00:46:05 00:49:07 18° 299° (WNW) 00:52:01 145.865
ISS 27 Jan 00:49:36 00:52:54 78° 343° (NNW) 00:56:14 145.825
UNISAT 6 27 Jan 00:57:54 00:59:21 11° 305° (NW) 01:00:36 437.425
BEESAT 27 Jan 00:58:34 01:03:19 70° 258° (WSW) 01:08:06 436.000
QB50P2 27 Jan 00:59:24 01:01:48 14° 301° (WNW) 01:04:03 145.880/145.840
ITUPSAT 1 27 Jan 01:00:49 01:05:34 68° 258° (WSW) 01:10:21 437.325
QB50P1 27 Jan 01:10:16 01:11:58 12° 303° (WNW) 01:13:30 145.935-145.965
M-CUBED/EXP-1 PRIME 27 Jan 01:32:14 01:35:54 36° 64° (ENE) 01:39:21 437.505
Gurwin Techsat 1B 27 Jan 01:36:12 01:39:24 16° 86° (E) 01:42:48 435.225
GONETS M04 27 Jan 01:36:23 01:45:02 69° 94° (E) 01:53:42
STARS 27 Jan 02:00:13 02:04:40 75° 73° (ENE) 02:09:09 437.465
KKS-1 27 Jan 02:00:51 02:05:20 76° 257° (WSW) 02:09:52 437.445
AUBIESAT-1 27 Jan 02:07:14 02:11:14 75° 69° (ENE) 02:14:56 437.475
O/OREOS (USA 219) 27 Jan 02:14:41 02:19:19 85° 63° (ENE) 02:23:55 437.305
BEESAT 2 27 Jan 02:17:15 02:19:36 15° 112° (ESE) 02:22:05 435.950
Oscar 19 27 Jan 02:22:08 02:27:16 63° 289° (WNW) 02:32:20 437.125/150
SWISSCUBE 27 Jan 02:23:27 02:25:38 13° 275° (W) 02:27:36 437.505
ISS 27 Jan 02:26:22 02:29:38 55° 4° (N) 02:32:54 145.825
DANDE 27 Jan 02:30:59 02:32:57 11° 71° (ENE) 02:35:33 436.750
ITAMSAT 1 27 Jan 02:32:24 02:37:37 64° 102° (ESE) 02:42:49 435.822/435.867
BEESAT 3 27 Jan 02:32:55 02:36:10 23° 116° (ESE) 02:39:33 437.485
M-CUBED/EXP-1 PRIME 27 Jan 03:07:40 03:10:59 24° 259° (W) 03:14:04 437.505
CUSAT 1 27 Jan 03:08:20 03:14:25 24° 82° (E) 03:20:51 437.405
Gurwin Techsat 1B 27 Jan 03:14:47 03:20:08 82° 288° (WNW) 03:25:28 435.225
MOZHAYETS 4 27 Jan 03:22:17 03:26:28 36° 68° (ENE) 03:30:41
AO-7 27 Jan 03:25:33 03:32:32 30° 92° (E) 03:39:40 29.400- 29.500
GONETS M04 27 Jan 03:34:53 03:42:41 33° 298° (WNW) 03:50:20
AIST 2 27 Jan 03:36:22 03:40:18 37° 120° (ESE) 03:44:19 435.215
HORYU 2 27 Jan 03:36:54 03:41:20 61° 101° (E) 03:45:45 437.375
STARS 27 Jan 03:39:18 03:41:46 14° 273° (W) 03:44:03 437.465
AUBIESAT-1 27 Jan 03:45:10 03:46:37 11° 265° (W) 03:47:50 437.475
BEESAT 2 27 Jan 03:53:10 03:57:19 77° 309° (NW) 04:01:33 435.950
O/OREOS (USA 219) 27 Jan 03:55:55 03:58:08 13° 261° (W) 04:00:09 437.305
ISS 27 Jan 04:02:57 04:06:16 72° 203° (SSW) 04:09:34 145.825
Oscar 19 27 Jan 04:03:39 04:05:44 12° 308° (NW) 04:07:36 437.125/150
DANDE 27 Jan 04:06:53 04:14:37 48° 91° (E) 04:22:49 436.750
BEESAT 3 27 Jan 04:10:02 04:14:05 51° 315° (NW) 04:18:10 437.485
ITAMSAT 1 27 Jan 04:12:39 04:16:44 23° 301° (WNW) 04:20:43 435.822/435.867
STRAND 1 27 Jan 04:18:39 04:21:02 14° 53° (NE) 04:23:36 437.568
JAS-2 27 Jan 04:22:23 04:27:22 34° 96° (E) 04:32:52 435.910
PRISM 27 Jan 04:35:41 04:38:59 24° 64° (ENE) 04:42:21 437.425
RS-15 27 Jan 04:38:47 04:48:19 39° 110° (ESE) 04:58:09 29.354- 29.394
CUSAT 1 27 Jan 04:48:20 04:56:35 87° 101° (E) 05:05:02 437.405
PCSat 27 Jan 04:50:12 04:55:17 44° 116° (ESE) 05:00:27 145.827
Gurwin Techsat 1B 27 Jan 04:56:13 04:59:25 16° 305° (NW) 05:02:26 435.225
MOZHAYETS 4 27 Jan 04:59:43 05:03:47 30° 266° (W) 05:07:49
CUBESAT XI-V 27 Jan 05:07:54 05:12:03 35° 67° (ENE) 05:16:17 437.345
HORYU 2 27 Jan 05:14:28 05:17:38 19° 300° (WNW) 05:20:42 437.375
AIST 2 27 Jan 05:14:58 05:18:58 36° 320° (NW) 05:22:59 435.215
AO-7 27 Jan 05:17:50 05:26:12 75° 294° (WNW) 05:34:28 29.400- 29.500
BEESAT 2 27 Jan 05:33:15 05:36:14 18° 332° (NNW) 05:39:13 435.950
YUBILEINY 27 Jan 05:39:13 05:47:00 35° 63° (ENE) 05:54:55 435.215
ISS 27 Jan 05:40:11 05:42:22 16° 221° (SW) 05:44:29 145.825
DANDE 27 Jan 05:50:00 05:58:08 53° 291° (WNW) 06:06:33 436.750
BEESAT 3 27 Jan 05:50:43 05:53:11 15° 337° (NNW) 05:55:35 437.485
STRAND 1 27 Jan 05:54:22 05:59:27 73° 73° (ENE) 06:04:35 437.568
Cubesat XI-IV 27 Jan 05:56:35 06:01:25 34° 95° (E) 06:06:18 437.490
JAS-2 27 Jan 06:07:31 06:12:39 43° 293° (WNW) 06:18:14 435.910
PRISM 27 Jan 06:10:30 06:14:22 38° 262° (W) 06:18:14 437.425
CUTE-I 27 Jan 06:17:06 06:22:18 48° 99° (E) 06:27:31 437.470
CUSAT 1 27 Jan 06:33:34 06:40:43 29° 302° (WNW) 06:47:38 437.405
PCSat 27 Jan 06:33:42 06:38:48 40° 317° (NW) 06:43:56 145.827
CUBESAT XI-V 27 Jan 06:45:28 06:49:34 31° 266° (W) 06:53:40 437.345
RS-15 27 Jan 06:49:02 06:59:58 75° 315° (NW) 07:11:08 29.354- 29.394
AIST 2 27 Jan 06:56:41 06:58:47 13° 343° (NNW) 07:00:51 435.215
AO-7 27 Jan 07:11:34 07:17:50 24° 316° (NW) 07:23:53 29.400- 29.500
BRITE-PL 27 Jan 07:33:34 07:37:07 17° 84° (E) 07:40:50 437.365/2234.400
STRAND 1 27 Jan 07:35:50 07:39:18 18° 272° (W) 07:42:36 437.568
YUBILEINY 27 Jan 07:35:53 07:44:34 66° 266° (W) 07:53:13 435.215
Cubesat XI-IV 27 Jan 07:36:36 07:41:39 42° 294° (WNW) 07:46:40 437.490
DANDE 27 Jan 07:38:34 07:43:53 17° 315° (NW) 07:48:49 436.750
GOMX 1 27 Jan 07:41:18 07:43:51 14° 82° (E) 07:46:38 467.674
HO-68 27 Jan 07:45:56 07:50:46 20° 86° (E) 07:55:53 435.675
CUTE-I 27 Jan 07:57:34 08:02:13 30° 298° (WNW) 08:06:49 437.470
DOVE 4 27 Jan 08:03:53 08:06:48 15° 84° (E) 08:09:52 437.250
SEEDS 27 Jan 08:11:36 08:14:11 16° 88° (E) 08:16:55 437.485
PCSat 27 Jan 08:20:35 08:23:47 15° 341° (NNW) 08:26:53 145.827
NANOSAT C BR1 27 Jan 08:33:50 08:35:05 11° 56° (ENE) 08:36:31 145.865
AIST 2 27 Jan 08:38:21 08:39:14 11° 7° (N) 08:40:09 435.215
COMPASS 1 27 Jan 08:40:45 08:44:16 26° 93° (E) 08:47:49 437.405
QB50P2 27 Jan 08:45:38 08:47:58 15° 59° (ENE) 08:50:26 145.880/145.840
UNISAT 6 27 Jan 08:46:02 08:49:46 24° 63° (ENE) 08:53:35 437.425
CANX-2 27 Jan 08:48:02 08:52:08 46° 98° (E) 08:56:13 2200.000
BEESAT 2 27 Jan 08:54:01 08:56:05 13° 19° (NNE) 08:58:13 435.950
QB50P1 27 Jan 08:55:13 08:58:01 18° 61° (ENE) 09:00:56 145.935-145.965
RS-15 27 Jan 09:04:16 09:14:24 39° 345° (NNW) 09:24:46 29.354- 29.394
Oscar 11 27 Jan 09:06:30 09:09:54 23° 92° (E) 09:13:21 145.826/435.025
POLYITAN 1 27 Jan 09:07:49 09:11:10 23° 63° (ENE) 09:14:37 437.675
AAUSAT CUBESAT 2 27 Jan 09:08:29 09:12:29 43° 98° (E) 09:16:28 437.432
BEESAT 3 27 Jan 09:10:17 09:12:53 16° 24° (NNE) 09:15:32 437.485
BRITE-PL 27 Jan 09:10:41 09:16:27 87° 287° (WNW) 09:22:04 437.365/2234.400
CUTE 1.7 + AOD 2 27 Jan 09:12:28 09:16:44 75° 102° (ESE) 09:20:57 437.475
DELFI C3 27 Jan 09:16:41 09:19:52 22° 92° (E) 09:23:07 145.870
GOMX 1 27 Jan 09:17:25 09:22:59 81° 103° (ESE) 09:28:19 467.674
BUGSAT 1 27 Jan 09:18:09 09:21:15 21° 63° (ENE) 09:24:28 437.445
ANTELSAT 27 Jan 09:20:54 09:25:25 47° 70° (ENE) 09:29:57 437.575/2403.000
POPSAT HIP 1 27 Jan 09:28:27 09:32:18 33° 67° (ENE) 09:36:13 437.405
TIGRISAT 27 Jan 09:29:51 09:34:27 56° 72° (ENE) 09:39:05 435.000
DUCHIFAT 1 27 Jan 09:32:21 09:36:15 36° 68° (ENE) 09:40:13 145.980
HO-68 27 Jan 09:32:25 09:39:37 88° 107° (ESE) 09:46:49 435.675
CUBEBUG 2 27 Jan 09:33:33 09:37:42 31° 94° (E) 09:41:45 437.445
YUBILEINY 27 Jan 09:35:05 09:39:49 15° 288° (WNW) 09:44:04 435.215
DOVE 4 27 Jan 09:40:04 09:45:25 87° 280° (W) 09:50:32 437.250
UKube-1 27 Jan 09:40:26 09:44:12 28° 95° (E) 09:47:59 .
CINEMA 3 27 Jan 09:43:16 09:48:13 63° 101° (E) 09:52:55 145.822/145.860
SEEDS 27 Jan 09:46:18 09:50:28 58° 288° (WNW) 09:54:35 437.485
GONETS M04 27 Jan 09:47:10 09:49:31 11° 38° (NE) 09:52:20
ZACube-1 27 Jan 09:50:43 09:54:47 32° 95° (E) 09:58:45 437.345
DX 1 27 Jan 09:58:22 10:02:35 43° 98° (E) 10:06:48 434.975-435.025
FUNcube-1 27 Jan 10:03:19 10:07:35 42° 97° (E) 10:11:45 145.935
NANOSAT C BR1 27 Jan 10:06:01 10:10:17 77° 74° (ENE) 10:14:36 145.865
50 SAT 27 Jan 10:07:13 10:10:14 20° 91° (E) 10:13:18 437.505
PCSat 27 Jan 10:07:24 10:09:34 12° 7° (N) 10:11:45 145.827
ESTCUBE 1 27 Jan 10:10:22 10:11:58 12° 85° (E) 10:13:47 437.505/2401.250
HUMSAT D 27 Jan 10:10:42 10:14:26 29° 94° (E) 10:18:08 437.325/437.525
AISAT 27 Jan 10:12:51 10:16:38 26° 93° (E) 10:20:28 437.250
AIST 2 27 Jan 10:16:07 10:19:27 21° 30° (NNE) 10:22:46 435.215
COMPASS 1 27 Jan 10:16:16 10:20:05 35° 292° (WNW) 10:23:52 437.405
UWE-3 27 Jan 10:17:58 10:22:34 71° 101° (E) 10:27:00 435.000/436.395/437.385
QB50P2 27 Jan 10:19:05 10:23:22 78° 257° (WSW) 10:27:43 145.880/145.840
PHONESAT 2.4 27 Jan 10:19:38 10:20:41 11° 158° (SSE) 10:21:48 2401.200-2431.200
UNISAT 6 27 Jan 10:21:43 10:26:20 50° 261° (W) 10:30:55 437.425
CANX-2 27 Jan 10:24:34 10:27:51 22° 297° (WNW) 10:31:03 2200.000
QB50P1 27 Jan 10:29:15 10:33:30 63° 259° (WSW) 10:37:48 145.935-145.965
BEESAT 2 27 Jan 10:31:26 10:35:25 40° 42° (NE) 10:39:23 435.950
VELOX 1 27 Jan 10:41:56 10:46:17 47° 99° (E) 10:50:39 145.980
Oscar 11 27 Jan 10:42:11 10:46:18 43° 291° (WNW) 10:50:22 145.826/435.025
POLYITAN 1 27 Jan 10:42:44 10:46:53 45° 261° (W) 10:51:05 437.675
AAUSAT CUBESAT 2 27 Jan 10:44:41 10:47:57 22° 296° (WNW) 10:51:06 437.432
BEESAT 3 27 Jan 10:47:45 10:51:54 58° 46° (NE) 10:55:59 437.485
CUTE 1.7 + AOD 2 27 Jan 10:49:44 10:52:10 15° 300° (WNW) 10:54:27 437.475
BRITE-PL 27 Jan 10:50:22 10:54:14 19° 303° (WNW) 10:57:54 437.365/2234.400
DELFI C3 27 Jan 10:51:30 10:55:17 38° 291° (WNW) 10:59:02 145.870
BUGSAT 1 27 Jan 10:52:34 10:56:31 45° 262° (W) 11:00:32 437.445
GOMX 1 27 Jan 10:56:32 11:00:29 20° 302° (WNW) 11:04:14 467.674
CUBEBUG 1 27 Jan 10:57:01 11:00:56 30° 95° (E) 11:04:54 437.445
ANTELSAT 27 Jan 10:58:34 11:02:28 24° 268° (W) 11:06:16 437.575/2403.000
AIST 1 27 Jan 11:03:26 11:07:04 28° 90° (E) 11:10:46
SO-50 27 Jan 11:03:50 11:08:13 46° 122° (ESE) 11:12:48 436.795
POPSAT HIP 1 27 Jan 11:04:29 11:08:16 29° 266° (W) 11:12:01 437.405
TIGRISAT 27 Jan 11:08:00 11:11:35 21° 270° (W) 11:15:05 435.000
DUCHIFAT 1 27 Jan 11:08:34 11:12:13 27° 266° (W) 11:15:52 145.980
VERMONT LUNAR 27 Jan 11:09:29 11:11:58 18° 172° (S) 11:14:29 437.305
CUBEBUG 2 27 Jan 11:10:12 11:14:28 35° 293° (WNW) 11:18:32 437.445
UKube-1 27 Jan 11:16:26 11:20:27 36° 293° (WNW) 11:24:25 .
DOVE 4 27 Jan 11:19:07 11:22:27 17° 304° (WNW) 11:25:34 437.250
RS-15 27 Jan 11:19:52 11:30:10 41° 18° (NNE) 11:40:55 29.354- 29.394
HO-68 27 Jan 11:21:01 11:26:37 25° 308° (NW) 11:32:04 435.675
CINEMA 3 27 Jan 11:21:15 11:24:58 21° 300° (WNW) 11:28:30 145.822/145.860
ZACube-1 27 Jan 11:27:08 11:31:09 32° 294° (WNW) 11:35:02 437.345
DX 1 27 Jan 11:35:03 11:38:39 25° 297° (WNW) 11:42:12 434.975-435.025
TISAT 1 27 Jan 11:35:47 11:38:55 20° 91° (E) 11:42:10 437.305
FUNcube-1 27 Jan 11:40:03 11:43:46 25° 296° (WNW) 11:47:20 145.935
GONETS M04 27 Jan 11:41:25 11:49:35 43° 67° (ENE) 11:57:47
50 SAT 27 Jan 11:41:43 11:45:37 43° 290° (WNW) 11:49:27 437.505
NANOSAT C BR1 27 Jan 11:44:45 11:46:48 13° 274° (W) 11:48:40 145.865
ESTCUBE 1 27 Jan 11:45:03 11:49:37 89° 278° (W) 11:54:08 437.505/2401.250
HUMSAT D 27 Jan 11:46:25 11:50:17 33° 293° (WNW) 11:54:03 437.325/437.525
AISAT 27 Jan 11:49:10 11:53:25 40° 292° (WNW) 11:57:38 437.250
PCSat 27 Jan 11:50:41 11:55:01 24° 32° (NNE) 11:59:25 145.827
AIST 2 27 Jan 11:54:18 11:58:39 88° 233° (SW) 12:02:55 435.215
UWE-3 27 Jan 11:55:36 11:58:38 17° 301° (WNW) 12:01:29 435.000/436.395/437.385
PHONESAT 2.4 27 Jan 11:55:46 11:58:28 20° 174° (S) 12:01:12 2401.200-2431.200
Oscar 19 27 Jan 12:04:12 12:09:07 45° 68° (ENE) 12:14:05 437.125/150
BEESAT 2 27 Jan 12:09:51 12:13:35 31° 241° (WSW) 12:17:14 435.950
ITAMSAT 1 27 Jan 12:16:40 12:20:46 25° 60° (ENE) 12:24:59 435.822/435.867
VELOX 1 27 Jan 12:19:02 12:22:39 24° 297° (WNW) 12:26:11 145.980
SPROUT 27 Jan 12:26:32 12:30:53 64° 101° (ESE) 12:35:13 437.525
BEESAT 3 27 Jan 12:26:36 12:29:43 20° 245° (WSW) 12:32:43 437.485
CUBEBUG 1 27 Jan 12:33:20 12:37:22 34° 293° (WNW) 12:41:22 437.445
SWISSCUBE 27 Jan 12:39:27 12:42:33 17° 88° (E) 12:45:49 437.505
AO-7 27 Jan 12:40:20 12:45:35 19° 39° (NE) 12:51:03 29.400- 29.500
AIST 1 27 Jan 12:40:54 12:44:43 31° 289° (WNW) 12:48:31
SO-50 27 Jan 12:44:37 12:48:56 35° 323° (NW) 12:53:22 436.795
VERMONT LUNAR 27 Jan 12:46:57 12:49:25 18° 189° (S) 12:51:53 437.305
BEESAT 27 Jan 12:55:16 12:58:58 22° 91° (E) 13:02:45 436.000
ITUPSAT 1 27 Jan 12:57:48 13:01:34 23° 91° (E) 13:05:26 437.325
Gurwin Techsat 1B 27 Jan 13:00:54 13:05:45 39° 66° (ENE) 13:10:41 435.225
HORYU 2 27 Jan 13:05:18 13:07:41 15° 58° (ENE) 13:10:12 437.375
DANDE 27 Jan 13:05:32 13:08:19 12° 39° (NE) 13:11:11 436.750
TISAT 1 27 Jan 13:10:53 13:15:04 49° 290° (WNW) 13:19:12 437.305
ESTCUBE 1 27 Jan 13:23:32 13:25:53 14° 303° (WNW) 13:28:05 437.505/2401.250
RS-15 27 Jan 13:33:09 13:44:27 80° 48° (NE) 13:56:17 29.354- 29.394
PCSat 27 Jan 13:33:45 13:39:14 87° 52° (NE) 13:44:41 145.827
PHONESAT 2.4 27 Jan 13:33:50 13:36:22 18° 191° (S) 13:38:54 2401.200-2431.200
AIST 2 27 Jan 13:34:41 13:36:40 13° 249° (WSW) 13:38:27 435.215
GONETS M04 27 Jan 13:38:22 13:46:42 52° 270° (W) 13:54:58
Oscar 19 27 Jan 13:44:07 13:48:41 30° 267° (W) 13:53:12 437.125/150
CUSAT 1 27 Jan 13:44:28 13:49:31 21° 51° (NE) 13:53:55 437.405
STARS 27 Jan 13:48:53 13:49:38 10° 84° (E) 13:50:38 437.465
KKS-1 27 Jan 13:49:06 13:51:51 16° 88° (E) 13:54:45 437.445
ITAMSAT 1 27 Jan 13:54:52 13:59:58 58° 259° (W) 14:05:07 435.822/435.867
SPROUT 27 Jan 14:03:37 14:06:35 18° 299° (WNW) 14:09:25 437.525
SWISSCUBE 27 Jan 14:16:12 14:20:59 67° 288° (WNW) 14:25:44 437.505
SO-50 27 Jan 14:28:04 14:30:52 15° 347° (NNW) 14:33:40 436.795
AO-7 27 Jan 14:28:42 14:36:50 59° 62° (ENE) 14:45:01 29.400- 29.500
BEESAT 27 Jan 14:32:31 14:37:10 52° 290° (WNW) 14:41:47 436.000
ITUPSAT 1 27 Jan 14:35:09 14:39:48 50° 290° (WNW) 14:44:25 437.325
HORYU 2 27 Jan 14:39:15 14:43:47 87° 255° (WSW) 14:48:20 437.375
JAS-2 27 Jan 14:40:46 14:44:50 23° 60° (ENE) 14:48:54 435.910
Gurwin Techsat 1B 27 Jan 14:40:55 14:45:47 36° 265° (W) 14:50:40 435.225
M-CUBED/EXP-1 PRIME 27 Jan 14:46:47 14:47:38 11° 95° (E) 14:48:37 437.505
DANDE 27 Jan 14:47:13 14:54:23 46° 66° (ENE) 14:59:56 436.750
PCSat 27 Jan 15:18:29 15:22:02 17° 253° (WSW) 15:25:21 145.827
AUBIESAT-1 27 Jan 15:20:05 15:22:48 23° 101° (E) 15:25:34 437.475
STARS 27 Jan 15:22:27 15:26:57 84° 103° (ESE) 15:31:24 437.465
KKS-1 27 Jan 15:24:32 15:29:02 66° 288° (WNW) 15:33:28 437.445
CUSAT 1 27 Jan 15:26:54 15:33:57 88° 259° (W) 15:39:11 437.405
GONETS M04 27 Jan 15:39:31 15:41:35 11° 292° (WNW) 15:43:02
Cubesat XI-IV 27 Jan 15:45:45 15:48:44 16° 54° (NE) 15:51:55 437.490
RS-15 27 Jan 15:46:04 15:56:06 37° 251° (WSW) 16:06:14 29.354- 29.394
SWISSCUBE 27 Jan 15:56:20 15:58:03 12° 306° (NW) 15:59:34 437.505
CUTE-I 27 Jan 16:05:13 16:09:05 21° 58° (ENE) 16:13:05 437.470
SO-50 27 Jan 16:10:41 16:13:20 14° 11° (N) 16:16:02 436.795
HORYU 2 27 Jan 16:19:47 16:21:15 11° 275° (W) 16:22:29 437.375
M-CUBED/EXP-1 PRIME 27 Jan 16:19:48 16:23:05 56° 293° (WNW) 16:26:22 437.505
